Location: Newark
(13.0494°N, 109.3336°E)
Time: 04:02:45
(UTC+00:00)

Hubble Space Telescope - Visible Passes

Search period start: 07 December 2019 00:00
Search period end: 17 December 2019 00:00
Orbit: 536 x 540 km, 28.5° (Epoch: 06 December)

Date Brightness Start Highest point End Pass type
(mag) Time Alt. Az. Time Alt. Az. Time Alt. Az.
07 Dec 2.9 22:15:22 10° SSW 22:18:52 27° SSE 22:22:23 10° E visible
08 Dec 2.3 22:04:26 10° SW 22:08:15 37° SSE 22:12:05 10° E visible
09 Dec 1.5 21:53:37 10° SW 21:57:39 52° SSE 22:01:41 10° ENE visible
10 Dec 0.9 21:43:59 17° SW 21:47:02 74° SSE 21:51:10 10° ENE visible
11 Dec 0.6 21:35:05 41° WSW 21:36:27 80° NNW 21:40:35 10° ENE visible
12 Dec 0.8 21:25:59 57° NNW 21:25:59 57° NNW 21:29:56 10° NE visible
13 Dec 2.0 21:16:43 31° NNE 21:16:43 31° NNE 21:19:15 10° NE visible
14 Dec 2.9 21:07:17 17° NNE 21:07:17 17° NNE 21:08:31 10° NE visible
15 Dec 3.6 20:57:42 10° NE 20:57:42 10° NE 20:57:43 10° NE visible
